{"data":{"norad_id":59644,"epoch":"2026-05-25T03:03:45.492768Z","epoch_age_seconds":70845,"freshness":"FRESH","line1":"1 59644U 24082P   26145.12760987  .00014059  00000+0  51920-3 0  9990","line2":"2 59644  43.0003  67.9936 0001531 266.4946  93.5730 15.27595355116706","mean_motion":15.27595355,"eccentricity":0.0001531,"inclination_deg":43.0003,"raan_deg":67.9936,"arg_perigee_deg":266.4946,"mean_anomaly_deg":93.573,"bstar":0.0005192,"rev_number":11670,"period_min":94.265801168268,"perigee_km":481.95267747879,"apogee_km":484.05355858293,"semimajor_km":6861.1401180309,"source":"CELESTRAK","updated_at":"2026-05-25T13:38:19.015518Z"}}